Location: Ferintosh
(52.7647°N, 112.9692°W)
Time: 14:32:06
(UTC+00:00)

Transit 2A Rocket - Pass Details

Date: 21 May 2024
Orbit: 583 x 910 km, 66.7° (Epoch: 14 June)

Event Time Altitude Azimuth Distance (km) Brightness Sun altitude
Rises 16:01:03 0° 299° (WNW) 3,219 7.8 38.9°
Reaches altitude 10° 16:04:03 10° 317° (NW) 2,357 7.2 39.3°
Maximum altitude 16:07:58 20° 3° (N) 1,854 7.0 39.8°
Drops below altitude 10° 16:12:04 10° 49° (NE) 2,501 8.1 40.4°
Sets 16:15:23 0° 66° (ENE) 3,484 8.9 40.9°
